Date String (YYYY-MM-DD hh:mm:ss) UTC,Instrument flags,absolute air pressure of the measurement (hPa),sample flow rate (lpm),inlet stack bypass flow (lpm),air temperature of the measurement (°C),ambient temperature measured by the external sensor (°C),aerosol sample conditioner tube jacket temperature (°C),OPC LED temperature (°C),internal box temperature (°C),relative humidity of the measurement (%),span deviation,mass concentration of particles derived from Lorenz-Mie calculation of OPC scattering (μg/m³),mass concentration of particles derived from Lorenz-Mie calculation of OPC scattering (μg/m³),mass concentration of particles derived from Lorenz-Mie calculation of OPC scattering (μg/m³)
DateTimeUTC,F1_M11,P_M11,Q1_M11,Q2_M11,T1_M11,T2_M11,T3_M11,T4_M11,T5_M11,U1_M11,ZSPAN_M11,X0_M11,X2_M11,X1_M11
2023-10-20 10:00:00,SystemResetWarning,0832.3,4.99,000.00,029.2,027.9,000.0,037.6,030.9,7.7,0000.0,0003.83,0000.80,0000.51
2023-10-20 10:01:00,SystemResetWarning,0832.3,5.00,000.00,029.2,027.9,000.0,037.6,030.9,7.7,0000.0,0003.77,0000.80,0000.51
2023-10-20 10:02:00,SystemResetWarning,0832.3,4.99,000.00,029.2,027.9,000.0,037.6,030.9,7.7,0000.0,0003.30,0000.81,0000.51
2023-10-20 10:03:00,SystemResetWarning,0832.3,5.01,000.00,029.2,028.0,000.0,037.6,030.9,7.9,0000.0,0002.36,0000.78,0000.51
2023-10-20 10:04:00,SystemResetWarning,0832.3,5.01,000.00,029.3,028.0,000.0,037.6,030.9,8.0,0000.0,0002.35,0000.78,0000.50
2023-10-20 10:05:00,SystemResetWarning,0832.3,4.99,000.00,029.3,028.0,000.0,037.6,030.9,8.0,0000.0,0002.60,0000.80,0000.51
2023-10-20 10:06:00,SystemResetWarning,0832.3,4.99,000.00,029.3,028.0,000.0,037.6,030.9,7.9,0000.0,0002.70,0000.80,0000.51
2023-10-20 10:07:00,SystemResetWarning,0832.3,5.01,000.00,029.3,028.0,000.0,037.6,030.9,8.0,0000.0,0002.85,0000.81,0000.51
2023-10-20 10:08:00,SystemResetWarning,0832.3,5.02,000.00,029.3,028.0,000.0,037.6,030.9,8.0,0000.0,0002.77,0000.77,0000.51
2023-10-20 10:09:00,SystemResetWarning,0832.3,5.00,000.00,029.3,028.0,000.0,037.7,030.9,8.1,0000.0,0002.72,0000.76,0000.51
2023-10-20 10:10:00,SystemResetWarning,0832.3,4.98,000.00,029.3,028.0,000.0,037.7,031.0,8.0,0000.0,0002.34,0000.76,0000.53
2023-10-20 10:11:00,SystemResetWarning,0832.3,4.99,000.00,029.3,028.0,000.0,037.7,031.0,8.0,0000.0,0001.63,0000.74,0000.53
2023-10-20 10:12:00,SystemResetWarning,0832.3,5.00,000.00,029.3,028.0,000.0,037.7,031.0,7.9,0000.0,0001.58,0000.71,0000.52
2023-10-20 10:13:00,SystemResetWarning,0832.3,5.01,000.00,029.3,028.0,000.0,037.7,031.0,7.9,0000.0,0001.48,0000.67,0000.52
2023-10-20 10:14:00,SystemResetWarning,0832.3,5.01,000.00,029.3,028.0,000.0,037.7,031.0,8.0,0000.0,0001.49,0000.68,0000.52
2023-10-20 10:15:00,SystemResetWarning,0832.3,5.00,000.00,029.4,028.0,000.0,037.7,031.0,8.0,0000.0,0001.60,0000.69,0000.52
2023-10-20 10:16:00,SystemResetWarning,0832.3,4.99,000.00,029.4,028.0,000.0,037.7,031.0,7.9,0000.0,0001.38,0000.67,0000.51
2023-10-20 10:17:00,SystemResetWarning,0832.3,4.99,000.00,029.4,028.0,000.0,037.7,031.0,7.9,0000.0,0001.31,0000.67,0000.50
2023-10-20 10:18:00,SystemResetWarning,0832.3,5.01,000.00,029.4,028.0,000.0,037.8,031.0,7.9,0000.0,0001.36,0000.70,0000.51
2023-10-20 10:19:00,SystemResetWarning,0832.3,5.01,000.00,029.4,028.0,000.0,037.8,031.0,8.0,0000.0,0001.46,0000.74,0000.51
2023-10-20 10:20:00,SystemResetWarning,0832.3,5.00,000.00,029.4,028.0,000.0,037.8,031.0,8.0,0000.0,0002.20,0000.75,0000.51
2023-10-20 10:21:00,SystemResetWarning,0832.3,4.98,000.00,029.4,027.6,000.0,037.8,031.0,8.0,0000.0,0002.58,0000.77,0000.50
2023-10-20 10:22:00,SystemResetWarning,0832.2,5.00,000.00,029.3,025.6,000.0,037.7,030.8,8.0,0000.0,0002.58,0000.77,0000.50
2023-10-20 10:23:00,SystemResetWarning,0832.2,5.01,000.00,029.2,024.7,000.0,037.6,030.6,8.0,0000.0,0003.29,0000.75,0000.50
2023-10-20 10:24:00,SystemResetWarning,0832.2,5.01,000.00,029.1,024.8,000.0,037.6,030.3,7.9,0000.0,0003.55,0000.76,0000.50
2023-10-20 10:25:00,SystemResetWarning,0832.2,4.99,000.00,029.0,025.1,000.0,037.6,030.2,7.8,0000.0,0003.54,0000.75,0000.49
2023-10-20 10:26:00,SystemResetWarning,0832.2,5.00,000.00,028.9,025.5,000.0,037.6,030.2,7.9,0000.0,0003.46,0000.74,0000.49
2023-10-20 10:27:00,SystemResetWarning,0832.2,5.00,000.00,028.9,025.8,000.0,037.6,030.3,8.1,0000.0,0003.39,0000.73,0000.50
2023-10-20 10:28:00,SystemResetWarning,0832.2,4.99,000.00,028.8,026.2,000.0,037.5,030.3,8.0,0000.0,0003.37,0000.73,0000.50
2023-10-20 10:29:00,SystemResetWarning,0832.2,5.00,000.00,028.8,026.4,000.0,037.5,030.3,8.0,0000.0,0003.32,0000.72,0000.50
2023-10-20 10:30:00,SystemResetWarning,0832.1,5.01,000.00,028.8,026.6,000.0,037.5,030.3,7.9,0000.0,0003.19,0000.69,0000.49
2023-10-20 10:31:00,SystemResetWarning,0832.1,5.01,000.00,028.8,026.8,000.0,037.4,030.4,7.9,0000.0,0003.11,0000.71,0000.48
2023-10-20 10:32:00,SystemResetWarning,0832.1,5.00,000.00,028.8,027.0,000.0,037.4,030.4,7.9,0000.0,0002.28,0000.74,0000.48
2023-10-20 10:33:00,SystemResetWarning,0832.1,4.98,000.00,028.8,027.1,000.0,037.4,030.4,8.0,0000.0,0002.21,0000.71,0000.48
2023-10-20 10:34:00,SystemResetWarning,0832.0,5.00,000.00,028.9,027.2,000.0,037.4,030.4,8.2,0000.0,0002.21,0000.72,0000.49
2023-10-20 10:35:00,SystemResetWarning,0832.1,5.01,000.00,028.9,027.3,000.0,037.4,030.5,8.2,0000.0,0001.29,0000.74,0000.49
2023-10-20 10:36:00,SystemResetWarning,0832.1,4.99,000.00,028.9,027.4,000.0,037.4,030.5,8.3,0000.0,0001.29,0000.76,0000.48
2023-10-20 10:37:00,SystemResetWarning,0832.0,5.00,000.00,028.9,027.4,000.0,037.4,030.5,8.0,0000.0,0001.34,0000.78,0000.48
2023-10-20 10:38:00,SystemResetWarning,0832.0,5.02,000.00,028.9,027.5,000.0,037.4,030.6,7.8,0000.0,0001.31,0000.76,0000.47
2023-10-20 10:39:00,SystemResetWarning,0832.0,5.00,000.00,028.9,027.5,000.0,037.4,030.6,7.7,0000.0,0001.27,0000.75,0000.47
2023-10-20 10:40:00,SystemResetWarning,0832.0,4.99,000.00,028.9,027.5,000.0,037.3,030.6,7.6,0000.0,0001.27,0000.74,0000.47
2023-10-20 10:41:00,SystemResetWarning,0832.0,5.01,000.00,028.9,027.6,000.0,037.4,030.6,7.6,0000.0,0001.16,0000.72,0000.47
2023-10-20 10:42:00,SystemResetWarning,0832.0,5.01,000.00,029.0,027.6,000.0,037.4,030.6,7.6,0000.0,0001.51,0000.71,0000.48
2023-10-20 10:43:00,SystemResetWarning,0832.0,5.00,000.00,029.0,027.6,000.0,037.4,030.7,7.7,0000.0,0001.63,0000.67,0000.48
2023-10-20 10:44:00,SystemResetWarning,0832.0,4.98,000.00,029.0,027.7,000.0,037.4,030.7,7.7,0000.0,0001.59,0000.65,0000.48
2023-10-20 10:45:00,SystemResetWarning,0832.0,4.99,000.00,029.0,027.7,000.0,037.4,030.7,7.7,0000.0,0001.72,0000.66,0000.48
2023-10-20 10:46:00,SystemResetWarning,0832.0,5.01,000.00,029.0,027.7,000.0,037.4,030.7,7.6,0000.0,0002.76,0000.67,0000.48
2023-10-20 10:47:00,SystemResetWarning,0832.0,5.00,000.00,029.0,027.7,000.0,037.4,030.7,7.6,0000.0,0002.82,0000.68,0000.49
2023-10-20 10:48:00,SystemResetWarning,0832.0,4.99,000.00,029.0,027.7,000.0,037.4,030.7,7.6,0000.0,0003.19,0000.70,0000.50
2023-10-20 10:49:00,SystemResetWarning,0832.0,5.01,000.00,029.0,027.7,000.0,037.4,030.7,7.6,0000.0,0003.87,0000.74,0000.51
2023-10-20 10:50:00,SystemResetWarning,0832.0,4.99,000.00,029.1,027.8,000.0,037.4,030.7,7.6,0000.0,0003.93,0000.76,0000.52
2023-10-20 10:51:00,SystemResetWarning,0832.0,5.00,000.00,029.1,027.8,000.0,037.4,030.8,7.5,0000.0,0004.11,0000.78,0000.52
2023-10-20 10:52:00,SystemResetWarning,0832.0,5.00,000.00,029.1,027.8,000.0,037.5,030.8,7.5,0000.0,0004.26,0000.80,0000.51
2023-10-20 10:53:00,SystemResetWarning,0832.0,5.00,000.00,029.1,027.8,000.0,037.5,030.8,7.5,0000.0,0004.01,0000.82,0000.51
2023-10-20 10:54:00,SystemResetWarning,0832.1,5.00,000.00,029.1,027.8,000.0,037.5,030.8,7.5,0000.0,0003.86,0000.85,0000.51
2023-10-20 10:55:00,SystemResetWarning,0832.1,5.01,000.00,029.1,027.8,000.0,037.5,030.8,7.7,0000.0,0003.88,0000.87,0000.52
2023-10-20 10:56:00,SystemResetWarning,0832.2,5.00,000.00,029.2,027.8,000.0,037.5,030.8,7.7,0000.0,0003.75,0000.87,0000.51
2023-10-20 10:57:00,SystemResetWarning,0832.2,5.00,000.00,029.2,027.8,000.0,037.5,030.8,7.7,0000.0,0002.68,0000.85,0000.52
2023-10-20 10:58:00,SystemResetWarning,0832.2,4.99,000.00,029.2,027.9,000.0,037.5,030.8,7.6,0000.0,0002.95,0000.84,0000.53
2023-10-20 10:59:00,SystemResetWarning,0832.2,4.99,000.00,029.2,027.9,000.0,037.5,030.8,7.7,0000.0,0002.77,0000.82,0000.52
